Regional Weather Roundup
Issued by NWS

Home | Current Version | Previous Version | Text Only | Print | Product List | Glossary On
Versions: 1 2 3 4 5 6 7 8 9 10 11 12 13 14 15 16 17 18 19 20 21 22 23 24 25 26 27
000
ASUS45 KPSR 092310
RWRAZ

ARIZONA HOURLY REGIONAL WEATHER ROUNDUP
NATIONAL WEATHER SERVICE PHOENIX AZ
400 PM MST FRI DEC 09 2016

NOTE: FAIR INDICATES FEW OR NO CLOUDS BELOW 12,000 FEET WITH NO
SIGNIFICANT WEATHER AND/OR OBSTRUCTIONS TO VISIBILITY.

AZZ001>003-036-100000-
NORTHWEST ARIZONA

CITY           SKY/WX    TMP DP  RH WIND       PRES   REMARKS
BULLHEAD CITY  PTSUNNY   63  16  16 N16       30.18F
KINGMAN        PTSUNNY   59  27  29 N8        30.21F
$$

AZZ004>008-015-016-018-100000-
NORTH CENTRAL ARIZONA

CITY           SKY/WX    TMP DP  RH WIND       PRES   REMARKS
GRAND CANYON   MOSUNNY   48  35  60 W5        30.27S
WILLIAMS       PTSUNNY   50  34  53 W6G13     30.27R
PRESCOTT       PTSUNNY   54  34  46 N7        30.23S
FLAGSTAFF      MOSUNNY   48  33  56 S10       30.27S
PAYSON         MOSUNNY   52  32  46 S6        30.26S
PAGE           SUNNY     46  13  26 E3        30.24F
$$

AZZ009>014-017-100000-
NORTHEAST ARIZONA

CITY           SKY/WX    TMP DP  RH WIND       PRES   REMARKS
WINSLOW        MOSUNNY   58  32  37 CALM      30.21F
SAINT JOHNS    SUNNY     58  28  32 N5        30.21F
WINDOW ROCK    PTCLDY    52  29  41 S8        30.25S
SHOW LOW       SUNNY     52  28  40 SW9       30.25F
$$

AZZ023-100000-
GREATER PHOENIX AREA

CITY           SKY/WX    TMP DP  RH WIND       PRES   REMARKS
PHOENIX        PTSUNNY   69  36  29 CALM      30.11F
BUCKEYE        PTSUNNY   66  37  34 E6        30.14F
GLENDALE       PTSUNNY   70  36  28 CALM      30.14F
LUKE AFB       PTSUNNY   69  38  32 CALM      30.12F
DEER VALLEY    PTSUNNY   68  38  33 VRB3      30.13S
SCOTTSDALE     PTSUNNY   68  36  30 W5        30.14F
MESA-FALCON    PTSUNNY  N/A N/A N/A W6        30.10F
MESA-GATEWAY   PTSUNNY   68  36  30 CALM      30.14S
CHANDLER       SUNNY     68  36  30 SW6       30.13F
$$

AZZ027-028-100000-
SOUTHWEST MARICOPA COUNTY AND PINAL COUNTY

CITY           SKY/WX    TMP DP  RH WIND       PRES   REMARKS
CASA GRANDE    NOT AVBL
GILA BEND      SUNNY     70  37  29 N9        30.11F
$$

AZZ503-504-507>509-100000-
SOUTHEAST ARIZONA

CITY           SKY/WX    TMP DP  RH WIND       PRES   REMARKS
TUCSON         MOSUNNY   71  32  23 VRB6      30.15F
DAVIS-MONTHAN  PTSUNNY   69  33  26 NW9       30.14F
NOGALES        MOSUNNY   70  27  20 NW5       30.15F
SIERRA VISTA   SUNNY     66  30  26 E2        30.21F
DOUGLAS        SUNNY     66  31  27 CALM      30.20F
SAFFORD        SUNNY     58  32  37 S7        30.21F
$$

AZZ020-021-025-026-031-100000-
SOUTHWEST ARIZONA

CITY           SKY/WX    TMP DP  RH WIND       PRES   REMARKS
YUMA           CLOUDY    70  26  19 NE6       30.13F
$$

CAZ031-033-041-043-047-048-061-100000-
SOUTHERN CALIFORNIA

CITY           SKY/WX    TMP DP  RH WIND       PRES   REMARKS
DOWNTOWN L.A.  MOSUNNY   63  56  78 CALM      30.17F
L.A. AIRPORT   PTSUNNY   61  57  87 SW7       30.18F
SAN DIEGO      PTSUNNY   65  54  67 NW14      30.19S
BURBANK        SUNNY     64  50  60 S8        30.16F
ONTARIO        PTSUNNY   63  45  51 W3        30.17F
RIVERSIDE      MOSUNNY   65  47  52 W6        30.17F
PALM SPRINGS   PTSUNNY   69  38  32 VRB6      30.16F
EL CENTRO NAS  CLOUDY    68  26  20 N5        30.16S
IMPERIAL       CLOUDY    68  30  24 NW5       30.14S
BLYTHE         CLOUDY    66  23  19 CALM      30.16F
NEEDLES        CLOUDY    65  19  17 CALM      30.18F
$$

NVZ020-UTZ003-100000-
SOUTHERN NEVADA-UTAH

CITY           SKY/WX    TMP DP  RH WIND       PRES   REMARKS
LAS VEGAS      PTSUNNY   55  10  16 N5        30.23S
SALT LAKE CITY CLOUDY    38  31  76 N9        30.15S WCI  31
$$

NMZ009-TXZ055-100000-
NEW MEXICO-WEST TEXAS

CITY           SKY/WX    TMP DP  RH WIND       PRES   REMARKS
ALBUQUERQUE    CLOUDY    45  27  49 SW7       30.28S
EL PASO        MOSUNNY   46  31  55 CALM      30.30F
$$


........................KEY........................
SKY/WX - SKY CONDITION/WEATHER
TMP    - TEMPERATURE IN FAHRENHEIT
DP     - DEW POINT IN FAHRENHEIT
RH     - RELATIVE HUMIDITY IN PERCENT
WIND   - DIRECTION AND SPEED IN MILES PER HOUR (MPH)
VRB    - VARIABLE WIND DIRECTION
PRES   - MEAN SEA LEVEL PRESSURE IN INCHES OF MERCURY
         F - FALLING PRESSURE   R - RISING PRESSURE
         S - STEADY PRESSURE
VSB    - VISIBILITY IN MILES
HX     - HEAT INDEX IN FAHRENHEIT
WCI    - WIND CHILL INDEX IN FAHRENHEIT
TC     - TEMPERATURE IN CELSIUS WHICH IS ALSO KNOWN AS
         TEMPERATURE IN CENTIGRADE
AFB    - AIR FORCE BASE
         LUKE AFB IS LUKE AIR FORCE BASE
         DAVIS-MONTHAN IS DAVIS-MONTHAN AIR FORCE BASE
NAS    - NAVAL AIR STATION
         EL CENTRO NAS IS EL CENTRO NAVAL AIR STATION
N/A    - NOT AVAILABLE





USA.gov is the U.S. government's official web portal to all federal, state and local government web resources and services.